STARLINK-38142, 100183

Orbit data source: Space-Track

STARLINK-38142, 100183 is a payload satellite owned by SpaceX/Seattle (US) in SSO that was launched on Sat, 01 Aug 2026 UTC launched from the Air Force Western Test Range (AFWTR). Payload-class satellites include a variety of spacecraft equipped with specific instruments for various scientific and technological missions. These include communications satellites like Starlink; space stations such as the ISS; scientific satellites like the Hubble; Earth observation satellites from companies like Planet Labs, Umbra, and HawkEye 360; GPS; miniature CubeSats for education and research; and military/defense satellites.

Loading next visibility...
Identifier
100183, 2026-175E
Orbit
SSO
Country
Flag of USUS
Related business
Manufacturer
SpaceX/Seattle
Mission
Operational spacecraft
Bus & Motor
STARLINK V2MO, Unknown motor
Mass
575 kg wet, ~530 kg dry
Launch date (UTC)
2026-08-01 (2 months ago)
Launch vehicle
Unknown
Launch site
Air Force Western Test Range (AFWTR)
Object type
Payload
Rocket body
Debris
Shape & HBR
BOX + PAN, 17.7 m
Radar Cross Section
Large (>1 m²)

Expand to show TLE details & history
Last TLE update: 1 day ago

TLE from 1 day ago
0 STARLINK-38142
1 A0183U 26175E   26262.71716302  .02011141  00000-0  16572-1 0  9990
2 A0183  97.2839 105.1245 0001543 218.1833 141.9319 15.67178392  9050
Epoch: 2026-09-19T17:12Z
TLE epoch observation values (Epoch: 2026-09-19T17:12:42.884Z)
Latitude
-0.00004°
Longitude
-151.67587°
Altitude
370.958 km
Speed
7.687 km/s
True Right ascension
07h 00m 29s
True Declination
0° 00' 00"
Sunlit
Object was in daylight at epoch
Visualization orbit readout
Latitude
Unknown
Longitude
Unknown
Altitude
Unknown
Speed
Unknown
Apparent Right ascension
Unknown
Apparent Declination
Unknown
Sunlit
N/A
Visualization observer readout
Local Sidereal Time
22:05:46
Azimuth
Unknown
Elevation
Unknown
Doppler factor
Unknown
Orbital elements
Apogee altitude
364.919 km
Perigee altitude
362.839 km
Semi-major axis
6,742.016 km
Eccentricity
0.00015
Inclination
97.2839°
RAAN
105.1245°
Arg. of periapsis
218.1833°
True anomaly
141.9428°
Mean anomaly
141.9319°
Eccentric anomaly
141.93735°
Mean motion
3.92065 °/min
Orbital period
91.82 mins
BSTAR
0.016572
Loading maneuver chart data...
Computing Atmospheric mass density...
Loading historical data...
Loading historical data...
Loading historical data...
Loading historical data...
Loading historical data...
Loading historical data...
Loading historical data...

Documentation

Showing up to 5 results
|